WetterOnline ( http://www.wetteronline.de )

Wetter aktuell Weiden

Aktuelles Wetter: Weiden (439m)

6-stündlich | Neueste Meldungen
Ortszeit Temperatur Wetter
Mo, 18.02. 1:00 -0.8° C wolkig
So, 17.02. 19:00 7.6° C wolkig
So, 17.02. 13:00 9.9° C wolkenlos
So, 17.02. 7:00 -3.4° C leicht bewölkt
So, 17.02. 1:00 -1.2° C wolkenlos
Sa, 16.02. 19:00 5.9° C wolkenlos
Sa, 16.02. 13:00 9.2° C wolkenlos
Sa, 16.02. 7:00 -3.1° C wolkig
Ortszeit Temperatur Wetter
Mo, 18.02. 3:30 -2.2° C wolkig
Mo, 18.02. 3:20 -2.2° C wolkig
Mo, 18.02. 3:10 -2.2° C wolkig
Mo, 18.02. 3:00 -2.2° C wolkig
Mo, 18.02. 2:50 -2.2° C wolkig
Mo, 18.02. 2:40 -2.0° C wolkig
Mo, 18.02. 2:30 -2.3° C wolkig
Mo, 18.02. 2:00 -1.7° C wolkig
Mo, 18.02. 1:30 -1.1° C wolkig
Mo, 18.02. 1:00 -0.8° C wolkig
Mo, 18.02. 0:30 -0.8° C wolkig
Ortszeit Relative Feuchte Sichtweite
Mo, 18.02. 1:00 85% 16 km
So, 17.02. 19:00 52% 29 km
So, 17.02. 13:00 42% 16 km
So, 17.02. 7:00 93% 8 km
So, 17.02. 1:00 88% 13 km
Sa, 16.02. 19:00 56% 30 km
Sa, 16.02. 13:00 49% 18 km
Sa, 16.02. 7:00 95% 12 km
Ortszeit Relative Feuchte Sichtweite
Mo, 18.02. 3:30 90% 14 km
Mo, 18.02. 3:20 90% -
Mo, 18.02. 3:10 91% -
Mo, 18.02. 3:00 91% 14 km
Mo, 18.02. 2:50 91% -
Mo, 18.02. 2:40 90% -
Mo, 18.02. 2:30 91% 14 km
Mo, 18.02. 2:00 88% 16 km
Mo, 18.02. 1:30 86% 18 km
Mo, 18.02. 1:00 85% 16 km
Mo, 18.02. 0:30 84% 16 km
Ortszeit Niederschlagsmenge Niederschlagsart
Mo, 18.02. 1:00 0.0 l/m2 in 6 Std. -
So, 17.02. 19:00 0.0 l/m2 in 12 Std. -
So, 17.02. 13:00 0.0 l/m2 in 6 Std. -
So, 17.02. 7:00 0.0 l/m2 in 12 Std. -
So, 17.02. 1:00 0.0 l/m2 in 6 Std. -
Sa, 16.02. 19:00 0.0 l/m2 in 12 Std. -
Sa, 16.02. 13:00 0.0 l/m2 in 6 Std. -
Sa, 16.02. 7:00 0.0 l/m2 in 12 Std. -
Ortszeit Niederschlagsmenge Niederschlagsart
Mo, 18.02. 3:30 0.0 l/m2 in 1 Std. -
Mo, 18.02. 3:20 keine Meldung -
Mo, 18.02. 3:10 keine Meldung -
Mo, 18.02. 3:00 0.0 l/m2 in 1 Std. -
Mo, 18.02. 2:50 keine Meldung -
Mo, 18.02. 2:40 keine Meldung -
Mo, 18.02. 2:30 0.0 l/m2 in 1 Std. -
Mo, 18.02. 2:00 0.0 l/m2 in 1 Std. -
Mo, 18.02. 1:30 0.0 l/m2 in 1 Std. -
Mo, 18.02. 1:00 0.0 l/m2 in 1 Std. -
Mo, 18.02. 0:30 0.0 l/m2 in 1 Std. -
Ortszeit Stärke Spitze Richtung
km/h Bft. km/h Grad Sektor
Mo, 18.02. 1:00 0 0 11 - -
So, 17.02. 19:00 7 2 22 160° S
So, 17.02. 13:00 7 2 14 210° SW
So, 17.02. 7:00 0 0 4 - -
So, 17.02. 1:00 4 1 18 60° NO
Sa, 16.02. 19:00 9 2 22 160° S
Sa, 16.02. 13:00 7 2 11 260° W
Sa, 16.02. 7:00 0 0 7 - -
Ortszeit Stärke Spitze Richtung
km/h Bft. km/h Grad Sektor
Mo, 18.02. 3:30 0 0 4 - -
Mo, 18.02. 3:20 0 0 - - -
Mo, 18.02. 3:10 2 1 - 280° W
Mo, 18.02. 3:00 0 0 4 - -
Mo, 18.02. 2:50 0 0 - 60° NO
Mo, 18.02. 2:40 0 0 - 30° NO
Mo, 18.02. 2:30 2 1 4 320° NW
Mo, 18.02. 2:00 0 0 4 - -
Mo, 18.02. 1:30 2 1 4 150° SO
Mo, 18.02. 1:00 0 0 4 - -
Mo, 18.02. 0:30 0 0 4 - -
Ortszeit Untergrenze Bedeckung Gattung
total tief tief mittel hoch
Mo, 18.02. 1:00 8400 m 8/8 0/8 - - -
So, 17.02. 19:00 7200 m 8/8 0/8 - - -
So, 17.02. 13:00 - 0/8 0/8 - - -
So, 17.02. 7:00 10500 m 5/8 0/8 - - -
So, 17.02. 1:00 - 0/8 0/8 - - -
Sa, 16.02. 19:00 - 0/8 0/8 - - -
Sa, 16.02. 13:00 - 0/8 0/8 - - -
Sa, 16.02. 7:00 10500 m 7/8 0/8 - - -
Ortszeit Bedeckungsgrad in Achtel und Wolkenuntergrenze
Mo, 18.02. 3:30 8(9000m) 8(9000m)
Mo, 18.02. 3:20 8(9000m) 8(9000m)
Mo, 18.02. 3:10 8(9000m) 8(9000m)
Mo, 18.02. 3:00 8(9000m) 8(9000m)
Mo, 18.02. 2:50 8(9000m) 8(9000m)
Mo, 18.02. 2:40 8(9000m)
Mo, 18.02. 2:30 8(8700m)
Mo, 18.02. 2:00 8(8700m)
Mo, 18.02. 1:30 7(8700m) 8(9000m)
Mo, 18.02. 1:00 8(8400m) 8(9000m)
Mo, 18.02. 0:30 8(8100m) 8(9000m)
Ortszeit Luftdruck NN (hPa) Tendenz (hPa in 3 Std.)
Mo, 18.02. 1:00 1027 0,0
So, 17.02. 19:00 1025 - 0,2
So, 17.02. 13:00 1027 - 1,3
So, 17.02. 7:00 1030 - 0,1
So, 17.02. 1:00 1031 - 0,3
Sa, 16.02. 19:00 1030 + 0,2
Sa, 16.02. 13:00 1030 - 1,0
Sa, 16.02. 7:00 1033 - 0,2
Ortszeit Luftdruck NN (hPa) Tendenz (hPa in 3 Std.)
Mo, 18.02. 3:30 1026 - 0,8
Mo, 18.02. 3:20 1026 keine Meldung
Mo, 18.02. 3:10 1027 keine Meldung
Mo, 18.02. 3:00 1027 - 0,4
Mo, 18.02. 2:50 1027 keine Meldung
Mo, 18.02. 2:40 1027 keine Meldung
Mo, 18.02. 2:30 1027 - 0,1
Mo, 18.02. 2:00 1027 - 0,3
Mo, 18.02. 1:30 1027 - 0,1
Mo, 18.02. 1:00 1027 0,0
Mo, 18.02. 0:30 1027 - 0,2
Ortszeit Schneehöhe (cm)
Mo, 18.02. 1:00 0
So, 17.02. 19:00 0
So, 17.02. 13:00 0
So, 17.02. 7:00 0
So, 17.02. 1:00 0
Sa, 16.02. 19:00 0
Sa, 16.02. 13:00 0
Sa, 16.02. 7:00 0
Ortszeit Schneehöhe (cm)
Mo, 18.02. 3:30 0
Mo, 18.02. 3:20 0
Mo, 18.02. 3:10 0
Mo, 18.02. 3:00 0
Mo, 18.02. 2:50 0
Mo, 18.02. 2:40 0
Mo, 18.02. 2:30 0
Mo, 18.02. 2:00 0
Mo, 18.02. 1:30 0
Mo, 18.02. 1:00 0
Mo, 18.02. 0:30 0
Link zu dieser Seite / Seite empfehlen

Das Wetter in ...